Back to catalog

STARLINK-33973

AliveCommunicationsVLEO
NORAD 63894·PAYLOAD·🇺🇸 United States

Launched May 10, 2025 from Cape Canaveral Space Force Station

Loading…

Next Passes (next 24 hours)

TLE

FreshSource: CelesTrak SupGP

Epoch: Sep 14, 2026, 20:56 UTC

1 63894C 25095E   26257.87270833 -.00002519  00000+0 -91225-4 0  2579
2 63894  43.0026 187.4028 0001456 262.4666 170.1947 15.27580582    18

Track STARLINK-33973 in real time with AllMySat

Download on the App Store